Regional Weather Roundup
Issued by NWS

Home | Current Version | Previous Version | Graphics & Text | Print | Product List | Glossary On
Versions: 1 2 3 4 5 6 7 8 9 10 11 12 13 14 15 16 17 18 19 20 21 22 23 24 25 26 27 28 29 30 31 32 33 34 35 36 37 38 39 40 41 42 43 44 45 46 47 48 49 50
000
ASUS45 KBOU 282007
RWRCO

WEATHER ROUNDUP FOR COLORADO
NATIONAL WEATHER SERVICE DENVER/BOULDER CO
200 PM MDT THU AUG 28 2014

NOTE: "FAIR" INDICATES FEW OR NO CLOUDS BELOW 12000 FEET WITH NO
SIGNIFICANT WEATHER AND/OR OBSTRUCTIONS TO VISIBILITY.

COZ001>005-013-030-031-282100-
...NORTHWEST COLORADO...

CITY           SKY/WX    TMP DP  RH WIND       PRES   REMARKS
CRAIG          MOSUNNY   67  49  52 MISG      30.28F
HAYDEN         PTSUNNY   64  46  52 W5        30.29F
MEEKER         CLOUDY    65  50  58 CALM      30.29F
MOUNT WERNER   NOT AVBL
STEAMBOAT SPGS MOSUNNY   60  50  70 S5        30.31F
WALDEN         CLOUDY    52  45  76 CALM      30.36S
$$

COZ006>008-011-282100-
...WEST CENTRAL VALLEYS...

CITY           SKY/WX    TMP DP  RH WIND       PRES   REMARKS
GRAND JUNCTION PTSUNNY   71  50  47 MISG      30.22F
MONTROSE       MOSUNNY   69  47  45 VRB5      30.30F
EAGLE          PTSUNNY   63  50  63 VRB5      30.32F
RIFLE          MOSUNNY   68  52  56 VRB5      30.25F
DELTA          MOSUNNY   73  52  48 E6        30.26F
NUCLA          CLOUDY    68  46  45 CALM      30.31F
$$

COZ017>023-064>068-282100-
...SOUTHWEST COLORADO...

CITY           SKY/WX    TMP DP  RH WIND       PRES   REMARKS
DURANGO        MOSUNNY   74  40  29 W12       30.23F
CORTEZ         MOSUNNY   76  44  32 N14G23    30.25F
PAGOSA SPRINGS PTSUNNY   67  38  34 SW8       30.29F
TELLURIDE      CLOUDY    55  43  62 N3        30.42F
WOLF CREEK PAS PTSUNNY   43  32  65 N15G21    30.54S
$$

COZ009-010-012-014-032>034-037-058>063-282100-
...CENTRAL COLORADO...

CITY           SKY/WX    TMP DP  RH WIND       PRES   REMARKS
ASPEN          CLOUDY    55  47  74 SE3       30.37S
BUENA VISTA    PTSUNNY   65  34  31 NW18G26   30.28S
COPPER MTN     LGT RAIN  41  37  87 W17G29    30.53R VSB<1/4
BERTHOUD PASS  HVY SNOW  32  30  93 N14G37    30.52R VSB<1/4 WCI  22
COTTONWOOD PAS CLOUDY    55  37  50 N8        30.39F
GUNNISON       CLOUDY    63  43  48 N14       30.33F
KREMMLING      LGT RAIN  54  46  76 S5        30.36S
LEADVILLE      LGT RAIN  47  39  74 N13       30.42S
MONARCH PASS   FOG       41  39  93 W21       30.62S VSB<1/4
SALIDA         PTSUNNY   68  42  39 NW7       30.32F
SUNLIGHT       PTSUNNY   46  46 100 NW3       30.53F
WILKERSON PASS NOT AVBL
$$

COZ069>075-282100-
...SAN LUIS VALLEY/SANGRE DE CRISTO MOUNTAINS...

CITY           SKY/WX    TMP DP  RH WIND       PRES   REMARKS
ALAMOSA        PTSUNNY   68  38  33 NW13G18   30.28F
LA VETA PASS   NOT AVBL
SAGUACHE       NOT AVBL
$$

COZ035-036-038>040-282100-
...NORTHERN COLORADO FRONT RANGE...

CITY           SKY/WX    TMP DP  RH WIND       PRES   REMARKS
DENVER INTL AP CLOUDY    68  48  48 N21       30.16S
DMNS CITY PARK   N/A     65  52  62 NE3G17    30.18R
AURORA         PTSUNNY   67  49  52 N23G29    30.18R
FRONT RANGE AP PTSUNNY   68  50  52 NW24G33   30.17S
ERIE MUNI ARPT CLOUDY    67  49  52 N8        30.17R
BOULDER MUN AP LGT RAIN  64  50  59 N6        30.17S
CENTENNIAL     CLOUDY    67  47  48 N18       30.18R THUNDER
BROOMFIELD     PTSUNNY   66  55  68 N7        30.19R
FORT COLLINS   CLOUDY    66  45  45 NW22      30.19R
LONGMONT       RAIN      63  54  73 W5G10     30.19R
$$

COZ041-046-047-076>085-087-088-282100-
...PIKES PEAK/PALMER DIVIDE AND SOUTHERN FOOTHILLS...

CITY           SKY/WX    TMP DP  RH WIND       PRES   REMARKS
COLO. SPRINGS  PTSUNNY   73  42  32 N5        30.17S
A. F. ACADEMY  PTSUNNY   61  46  57 W9        30.20R
ELLICOTT       PTSUNNY   71  46  40 E9        30.16S
FALCON         PTSUNNY   66  40  38 N6        30.22S
FORT CARSON    PTSUNNY   71  46  40 SE8       30.15S
LIMON          PTSUNNY   73  47  39 NW15G26   30.13R
MONUMENT HILL  PTSUNNY   63  43  48 NE15      30.23S
TRINIDAD       PTSUNNY   76  39  26 NE6       30.13F
$$

COZ042>045-048>051-090-091-282100-
...NORTHEAST COLORADO...

CITY           SKY/WX    TMP DP  RH WIND       PRES   REMARKS
GREELEY ARPT   CLOUDY    68  48  49 NW22      30.14R
AKRON          LGT RAIN  64  59  83 NW6       30.08R
BURLINGTON     SUNNY     78  51  38 NW14G20   30.04S
WRAY             N/A     80  55  42 NW9G23    29.99F
STERLING       PTSUNNY   75  61  60 N21G26    30.04S
HOLYOKE        MOSUNNY   79  61  53 NW15      30.01R
FORT MORGAN    MOSUNNY   74  52  46 NW18G24   30.10S
$$

COZ086-089-092>099-282100-
...SOUTHEAST COLORADO...

CITY           SKY/WX    TMP DP  RH WIND       PRES   REMARKS
PUEBLO         MOSUNNY   78  43  28 VRB3      30.08F
LA JUNTA       MOSUNNY   77  49  37 S5        30.05S
LAMAR          PTSUNNY   81  49  32 N8G17     30.00F
SPRINGFIELD      N/A     79  48  33 VRB6      30.05F
$$


USA.gov is the U.S. government's official web portal to all federal, state and local government web resources and services.